Theta_e
324 325 325 326 326 326 327 327 327 327 327 328 328 328 327 327 327 327 327 327 327 327 327 327 327 327 327 327 327 326 326 326 325 325 325 324 324 325 324 324 325 325 325 325 325 326 325 324 324 323 322 322 322 322 322 322 322 321 320 319 318 319 318 315 313 313 314 315 313 313 313 311 309 308 306 303 301 300 299 299 298 296 296 295 292
323 324 324 325 325 325 326 326 326 326 326 327 326 327 327 326 326 327 327 327 327 327 327 327 327 327 327 327 327 326 325 324 323 323 324 323 323 323 323 323 324 324 324 324 324 325 324 323 322 321 320 321 321 321 321 320 320 320 320 318 318 318 317 314 312 311 311 313 313 313 312 310 308 308 306 303 301 300 299 298 296 295 295 294 291
320 322 323 324 324 324 325 325 325 325 325 325 326 326 326 326 326 326 326 327 327 327 327 327 327 326 326 326 326 325 324 323 322 322 322 321 321 321 322 323 323 323 323 323 323 324 323 321 320 319 319 320 321 320 320 320 319 319 319 318 316 316 315 313 311 310 309 311 313 312 310 308 306 304 301 299 298 297 297 297 296 295 294 292 290
318 319 321 322 322 323 324 324 324 324 324 325 325 325 325 326 326 326 326 326 326 326 326 326 326 326 325 325 325 323 322 323 323 321 321 321 321 321 322 323 323 323 323 322 321 321 320 320 319 318 319 319 320 319 319 318 318 318 317 317 315 314 313 311 310 309 307 308 310 308 306 304 302 300 298 297 296 296 295 295 295 295 293 291 290
315 317 319 321 321 322 322 323 323 323 324 325 325 325 325 325 325 325 325 324 323 324 324 324 324 324 324 324 323 322 322 322 321 320 320 320 320 321 322 322 322 321 321 320 320 319 319 318 317 317 318 318 317 317 317 316 316 315 315 315 314 313 312 310 309 307 306 305 305 304 303 302 300 298 297 296 295 295 294 294 294 293 291 290 289
311 313 315 318 319 321 322 322 323 323 323 323 323 322 321 321 322 321 321 321 321 321 322 322 322 322 323 322 321 321 321 320 319 320 321 321 321 321 321 320 319 318 318 318 318 318 317 316 315 316 316 315 315 315 314 314 314 313 313 314 313 312 310 309 308 306 304 303 302 302 301 301 300 298 298 296 294 294 293 292 292 291 290 289 289
310 310 310 312 314 317 318 319 319 319 318 317 316 316 317 318 318 319 319 319 319 320 320 321 321 320 321 321 320 319 320 320 319 320 320 319 319 320 318 317 317 316 316 316 316 316 315 315 315 315 314 313 313 313 312 312 311 311 311 311 310 309 308 307 306 304 302 301 301 301 300 300 299 297 297 296 293 292 292 291 290 291 289 288 288
310 310 309 309 310 311 312 313 313 312 312 313 314 315 316 317 318 318 318 318 318 318 318 318 319 319 318 319 319 319 319 318 318 318 318 317 317 317 317 316 316 316 315 314 314 313 313 314 314 314 313 312 311 311 310 310 309 309 309 308 308 308 307 306 305 303 301 301 300 300 299 298 297 295 294 292 290 291 292 290 289 290 289 288 288
310 310 310 310 310 310 309 310 310 311 313 314 316 317 318 318 318 318 317 316 316 316 316 316 316 316 316 316 316 316 315 315 315 315 315 315 315 315 315 316 316 315 314 313 312 312 313 314 313 313 312 311 310 309 309 308 308 308 308 307 307 307 306 305 304 302 301 300 299 299 297 295 295 294 292 291 291 292 292 290 289 289 288 287 287
309 310 310 310 310 310 310 310 311 313 315 316 317 318 318 318 318 317 316 315 314 313 313 313 313 313 313 313 313 312 312 312 312 312 312 313 313 314 314 314 314 313 312 312 312 313 313 313 312 311 311 310 309 309 309 308 308 308 307 307 306 306 304 303 302 301 300 299 298 297 295 294 294 294 292 292 292 291 290 289 288 288 287 286 287
308 309 309 310 310 310 311 311 312 313 315 316 316 316 317 316 316 315 314 313 313 313 312 310 310 309 309 309 309 309 310 310 310 310 310 311 312 313 313 312 312 311 311 311 311 311 311 311 310 309 309 309 309 309 308 308 307 306 306 306 305 304 302 301 300 300 299 297 297 296 294 293 294 294 293 292 291 290 288 288 287 287 286 285 286
308 308 309 309 310 311 312 312 313 314 314 314 314 314 313 313 312 311 311 312 311 310 309 307 306 306 306 305 305 305 307 307 307 308 309 309 310 310 310 311 311 310 310 310 310 310 310 310 309 308 307 307 307 307 307 306 306 306 305 304 303 301 300 299 299 298 297 296 295 295 294 293 294 294 292 291 289 288 287 287 287 286 286 285 285
308 308 308 308 309 310 311 312 313 313 313 313 312 311 311 310 310 309 309 309 308 306 305 305 305 305 305 305 305 305 306 306 307 307 307 307 308 308 308 308 308 308 308 309 310 310 309 309 308 307 306 306 305 305 305 305 304 304 302 301 300 298 297 296 296 295 295 295 294 294 294 293 292 292 290 288 287 287 287 287 287 287 286 285 286
308 308 308 308 308 309 309 311 312 312 312 311 310 309 309 308 308 308 307 306 305 304 304 304 305 306 306 307 307 307 307 307 307 307 307 307 307 307 307 307 307 307 308 309 309 309 308 308 308 307 306 305 304 303 303 302 302 302 301 299 298 296 294 293 293 292 293 292 292 292 292 291 289 288 287 285 285 286 286 286 286 286 286 286 286
308 308 307 307 308 308 308 309 310 309 309 308 307 307 307 306 306 305 304 303 303 303 304 305 305 305 306 307 308 308 308 308 307 307 307 308 308 308 309 308 308 308 307 307 307 307 307 307 307 306 305 303 302 301 301 300 300 300 299 298 295 294 292 291 290 290 290 290 289 289 289 288 288 287 286 286 285 285 285 285 285 285 285 285 285
306 307 307 308 308 308 308 309 308 308 306 305 304 305 304 304 304 303 302 302 303 303 304 305 305 305 307 308 308 308 309 309 308 308 308 308 309 309 308 308 307 306 305 304 304 304 304 305 304 304 303 301 300 299 298 298 298 298 297 296 294 293 292 290 289 288 288 288 288 287 287 287 287 287 286 286 286 286 285 285 285 285 284 284 283
307 307 307 308 308 308 308 308 308 307 305 304 304 304 303 302 302 301 302 302 303 303 304 306 306 306 307 307 308 308 309 309 309 308 308 308 308 308 307 307 306 304 303 303 302 302 302 302 302 301 300 299 297 296 296 296 296 296 295 294 294 292 290 288 288 287 287 287 286 286 286 286 286 286 286 286 286 286 285 285 285 284 284 283 283
306 306 308 309 308 308 308 307 306 306 305 305 305 303 302 301 301 301 302 302 303 304 304 306 306 306 307 307 307 308 308 308 308 307 307 308 307 307 307 306 305 303 302 302 301 301 300 300 299 298 297 297 296 295 295 295 295 294 293 293 292 290 288 287 286 286 286 286 286 285 285 285 285 285 285 285 285 285 285 284 284 284 283 282 282
307 308 309 308 308 307 306 305 305 305 305 305 304 302 301 301 300 301 302 302 303 304 304 305 305 306 306 306 306 306 306 307 307 306 306 306 306 306 306 305 304 303 301 301 300 299 298 297 296 296 296 296 296 296 295 294 293 292 291 290 289 288 287 286 286 286 285 285 285 285 285 284 284 284 284 284 284 284 284 284 284 283 283 282 282
308 309 308 308 306 305 304 303 303 304 304 304 302 301 301 300 300 301 302 302 303 304 304 305 305 305 305 305 305 305 305 306 305 305 305 305 305 305 304 304 303 301 300 300 299 298 296 295 295 295 295 295 295 294 293 291 290 290 289 288 287 286 286 285 285 285 285 285 285 285 284 284 284 284 283 283 283 283 283 283 283 283 283 282 282
308 308 307 306 305 304 304 303 302 302 302 301 301 300 300 299 300 300 301 302 302 303 304 304 304 304 304 305 304 304 304 305 304 304 304 304 304 303 303 302 301 300 299 298 297 295 294 294 293 293 293 293 292 291 290 289 289 288 287 286 286 285 285 285 285 285 285 285 285 285 284 284 284 284 283 283 283 282 282 282 282 282 282 282 282
306 305 305 305 304 304 303 302 302 301 300 300 300 299 298 298 299 300 301 302 302 303 303 303 303 303 303 304 304 303 303 303 303 303 302 302 302 302 301 300 299 298 298 297 296 294 293 293 292 292 291 290 290 289 289 288 288 287 286 286 285 285 285 284 285 285 285 285 285 285 285 284 284 284 283 283 283 282 282 282 281 281 281 281 281
303 303 303 303 303 304 303 303 302 300 299 299 299 299 298 298 299 300 301 302 302 302 302 302 302 301 301 302 302 302 302 302 301 301 301 300 300 299 299 298 297 297 297 296 295 293 292 292 291 290 289 288 288 288 288 287 287 286 286 285 285 285 285 285 285 285 285 285 285 284 284 284 283 283 283 283 282 282 282 281 281 281 280 280 280
301 302 302 302 302 303 303 303 302 300 299 299 298 298 298 298 298 299 300 300 300 300 300 300 299 299 298 299 299 299 299 300 299 299 299 298 298 298 297 296 296 296 296 295 293 292 291 290 289 288 288 287 287 287 287 286 286 285 285 285 284 284 284 284 284 284 284 283 283 283 283 283 282 282 282 281 281 281 281 281 280 280 280 279 279
300 301 301 301 302 302 302 302 301 300 299 298 298 297 297 297 298 298 299 299 299 298 298 298 298 297 297 297 297 297 297 298 298 297 297 297 296 296 296 296 296 296 295 293 291 290 289 289 288 287 287 287 287 287 286 286 285 285 285 284 284 284 284 283 283 283 282 282 282 282 282 282 281 281 281 280 280 280 280 279 279 279 279 279 279
300 300 300 301 301 301 300 300 299 299 298 298 298 297 297 297 297 297 297 298 298 298 297 296 296 296 295 295 296 296 296 296 296 296 296 295 295 295 295 295 295 294 292 290 290 289 288 288 287 287 287 287 287 286 286 285 285 284 284 284 284 284 283 283 283 282 281 281 281 281 281 281 280 280 280 280 279 279 279 279 279 278 278 278 278
300 299 299 299 299 299 299 298 297 297 296 297 297 297 296 297 296 296 296 296 297 297 296 296 295 295 295 295 295 295 295 295 295 295 294 294 294 294 294 294 292 290 289 289 288 287 287 287 287 286 286 286 286 286 285 285 284 284 284 283 283 283 283 283 283 282 281 281 280 280 280 280 279 279 279 279 278 278 278 278 278 278 278 277 277
300 299 298 298 297 297 297 297 296 296 296 296 296 296 296 296 296 296 296 296 296 297 297 296 296 295 295 295 293 293 293 294 294 294 293 293 293 293 292 291 290 289 288 288 287 286 286 286 286 286 286 285 285 285 284 284 283 283 283 283 283 283 282 282 282 282 281 280 280 279 279 279 278 278 278 278 278 277 277 277 277 277 277 276 276
299 298 298 298 297 297 297 296 296 296 295 295 296 296 296 296 296 296 296 296 297 297 297 297 296 296 296 295 293 291 291 293 294 293 293 293 293 292 290 289 288 288 287 287 286 286 286 285 285 285 284 284 284 284 283 283 283 282 282 282 282 282 282 282 281 281 281 280 280 279 279 278 278 278 278 278 278 278 278 277 277 277 276 276 275
298 298 298 297 297 297 296 295 295 295 295 295 295 295 296 296 296 296 296 296 296 297 297 297 296 296 296 295 294 293 292 292 293 293 292 292 291 290 289 288 287 287 286 286 286 285 285 285 284 284 284 284 283 283 283 282 282 282 282 282 281 281 281 281 281 281 280 280 280 279 279 279 279 279 279 278 278 278 278 278 277 277 276 276 275
297 297 297 296 296 296 295 295 295 295 295 295 294 294 294 294 295 296 296 296 296 297 297 297 297 296 296 295 294 294 293 292 292 291 291 290 288 287 287 286 286 286 286 285 285 285 285 284 284 283 283 283 282 282 282 282 281 281 281 281 281 281 281 280 280 280 280 280 279 279 279 279 279 279 279 278 278 278 278 278 278 277 277 276 275
296 296 296 296 296 295 295 295 294 294 294 294 294 294 293 292 293 293 294 295 296 297 297 297 296 296 296 295 294 294 293 292 291 290 289 288 286 286 286 285 285 285 285 285 285 285 284 284 283 282 281 281 281 281 281 281 280 280 280 280 280 280 280 279 279 279 279 279 279 278 278 278 278 278 278 278 278 278 278 277 277 277 276 276 275
295 296 296 295 295 294 294 294 294 294 294 294 293 293 293 292 291 291 291 293 294 295 296 296 295 295 295 294 294 293 292 290 288 287 286 286 285 285 285 284 284 284 284 285 285 284 283 283 282 280 279 280 280 280 279 279 279 279 280 280 279 279 279 279 279 278 278 278 278 278 278 278 278 278 278 278 277 277 277 276 276 276 275 275 275
295 295 295 295 295 294 293 294 294 293 294 293 293 292 292 292 291 290 289 289 289 291 292 293 293 293 293 292 292 291 290 288 286 286 286 285 285 284 284 284 284 284 284 285 285 284 282 281 280 279 279 279 279 278 278 278 278 279 279 278 278 278 278 278 278 278 278 278 278 278 278 278 278 277 277 277 276 276 276 276 276 275 275 275 274
293 294 294 294 294 293 293 293 293 293 293 293 293 292 292 292 291 289 288 287 286 286 286 287 289 290 291 290 289 288 287 286 285 285 284 284 284 284 284 284 284 284 284 284 284 283 282 280 279 279 278 278 278 278 278 278 278 278 278 278 278 278 278 278 278 278 278 277 277 277 277 277 276 276 276 275 275 275 275 275 275 275 275 274 274
291 292 293 293 293 292 293 293 293 293 293 292 292 292 291 291 290 288 287 287 285 284 284 284 285 286 287 286 286 285 285 284 284 283 283 283 283 283 284 284 283 283 282 282 282 281 280 280 279 278 278 278 278 277 277 277 277 277 277 277 277 277 277 277 277 276 276 276 276 275 275 275 275 275 274 274 275 275 275 275 275 274 274 274 274
289 291 291 291 291 291 291 292 292 292 292 291 291 291 290 289 288 287 286 285 284 283 283 283 283 284 284 284 284 283 283 283 283 283 283 283 283 283 283 283 282 282 281 281 280 280 279 278 278 278 277 277 277 277 277 277 276 276 276 276 276 275 275 275 275 275 275 274 274 274 274 274 274 274 274 274 274 274 274 274 274 274 274 273 273
289 289 290 290 290 290 290 290 290 290 290 290 290 289 288 287 286 285 284 283 282 281 281 281 282 282 282 282 282 282 282 282 282 282 283 283 283 283 283 282 281 280 280 279 278 278 278 277 277 277 276 276 276 276 276 276 275 275 275 274 274 274 273 273 273 273 273 273 273 274 274 274 274 274 273 273 273 273 273 273 273 273 273 273 273
288 288 288 289 289 289 289 289 289 289 288 288 287 287 286 285 284 283 282 281 280 280 279 280 280 280 280 281 281 281 281 281 280 280 280 281 281 281 281 280 280 279 278 277 277 277 276 276 276 275 275 275 275 275 275 275 274 274 273 273 273 272 272 272 272 272 272 272 272 272 272 272 272 272 271 271 271 271 272 272 272 273 272 272 272
287 287 287 288 288 288 288 288 287 287 287 286 286 285 284 283 283 282 281 279 279 278 278 279 279 279 280 280 280 280 280 278 278 278 278 278 278 279 278 278 277 277 276 276 275 276 275 275 275 275 275 275 275 274 274 274 273 273 272 272 271 271 271 270 270 270 270 270 270 270 270 269 269 270 270 270 270 271 271 272 272 272 272 272 272
286 286 286 286 286 286 286 286 286 285 285 285 284 284 283 282 282 281 280 279 278 277 277 277 278 278 279 279 279 279 279 278 277 277 277 276 276 276 276 276 276 275 275 275 275 275 274 274 274 274 275 274 274 274 273 273 272 272 271 271 270 270 269 269 269 268 268 268 268 268 268 268 268 268 268 268 269 269 270 270 270 270 270 270 271
285 285 285 285 285 284 284 284 284 283 283 283 283 282 282 281 280 279 278 277 277 276 276 276 276 276 277 277 277 278 278 277 276 275 275 275 275 275 275 274 274 274 275 274 274 274 274 274 274 274 274 273 273 272 272 271 271 271 270 270 269 269 269 268 268 268 268 268 268 268 267 267 267 266 266 266 267 267 268 268 269 269 269 269 270
284 284 284 283 283 283 283 282 282 282 281 281 281 281 280 280 279 278 277 276 276 275 275 274 274 275 275 276 276 277 277 276 275 274 274 274 274 274 274 274 274 274 273 273 273 273 274 274 274 273 273 272 272 271 271 271 270 270 269 269 269 269 268 268 268 268 267 267 268 267 267 267 266 265 264 265 265 266 267 267 268 268 269 269 269
283 282 282 281 281 281 281 280 280 280 280 280 279 279 279 278 278 277 276 275 274 274 274 273 273 273 274 274 275 275 275 274 274 274 274 274 274 274 274 273 273 272 272 272 273 273 273 273 273 272 272 271 271 271 270 270 270 269 269 268 268 268 268 268 267 267 267 267 267 266 266 265 264 263 263 263 264 265 266 266 267 267 268 268 268
281 281 281 280 279 279 279 279 279 278 278 278 277 277 277 277 276 275 275 274 274 273 273 272 272 273 273 273 274 274 274 273 273 273 273 273 273 273 272 271 271 271 271 272 273 273 273 272 272 271 271 270 270 270 269 269 268 268 268 268 268 268 268 267 267 266 266 265 265 264 263 263 263 262 262 263 264 264 265 265 265 266 266 267 267
280 280 279 279 278 277 277 277 277 277 276 276 275 275 275 275 274 274 273 273 273 273 272 272 272 272 272 273 273 273 273 273 273 273 272 272 271 271 270 270 271 271 272 272 272 272 271 271 271 270 270 269 269 269 268 268 268 268 267 267 267 267 267 267 266 266 265 264 263 262 262 261 262 262 262 262 263 263 264 264 264 265 265 266 266
279 279 278 277 277 276 276 275 276 275 275 275 274 274 274 273 273 273 273 272 273 273 272 272 272 272 272 272 272 272 272 272 272 271 271 270 270 270 270 271 271 271 271 271 271 270 270 270 270 269 269 269 268 268 268 268 268 267 267 267 267 267 267 266 266 266 265 264 262 261 261 261 261 261 261 262 262 263 263 263 263 264 264 265 265
278 277 277 276 276 275 275 275 275 274 274 273 273 273 273 273 273 273 273 273 273 272 272 271 271 271 271 271 271 271 271 271 270 270 270 270 270 271 271 271 271 271 270 270 270 269 269 269 269 269 268 268 268 268 268 268 268 267 267 267 267 267 266 266 266 266 265 264 262 262 261 261 261 261 261 261 261 262 262 262 262 263 263 264 264
277 276 276 275 274 274 274 274 274 274 273 273 272 272 272 272 272 272 272 272 272 271 271 271 271 271 271 271 271 270 270 270 269 269 270 270 270 271 270 270 270 270 269 269 269 268 268 268 268 268 268 268 268 268 268 268 268 267 267 267 266 266 266 266 266 265 264 263 262 262 261 261 261 261 261 261 261 261 261 262 262 262 263 263 263
276 275 275 274 274 273 273 273 273 273 273 273 272 271 271 271 271 271 271 271 271 271 271 272 272 271 271 271 270 269 269 269 269 270 270 270 270 270 270 269 269 269 268 268 268 268 267 267 267 267 267 267 267 267 268 267 267 267 267 267 266 266 266 266 265 264 262 261 261 262 262 262 262 262 262 261 261 261 261 261 261 262 262 262 263
275 274 274 274 273 273 274 274 273 273 273 274 274 273 273 273 272 272 272 272 272 271 271 271 270 270 270 269 269 269 269 269 269 270 270 270 269 269 269 269 269 268 268 268 267 267 267 267 267 267 267 267 267 267 267 267 267 267 267 267 266 266 266 265 264 262 262 262 262 263 264 264 263 263 262 262 262 262 262 262 262 262 262 262 262
Wind_Speed
33 35 35 36 37 37 36 35 35 34 34 34 34 35 34 34 33 31 30 29 28 27 26 26 25 24 24 23 22 21 21 21 20 20 21 23 23 22 22 24 27 27 26 25 25 24 23 20 18 17 18 21 23 24 26 28 28 28 29 30 31 31 30 25 16 14 22 26 23 22 23 23 23 25 27 29 31 34 37 40 40 38 36 34 32
33 34 34 34 35 35 35 34 33 33 33 33 34 34 33 32 30 29 28 28 26 25 25 24 23 22 22 22 21 21 20 19 19 19 20 21 21 20 20 23 25 24 24 25 24 23 22 20 17 16 16 19 21 22 24 25 25 26 28 27 29 32 30 27 21 16 17 23 25 23 23 23 23 25 26 28 29 32 35 38 39 37 36 35 33
30 31 31 32 33 32 32 32 32 33 33 33 33 32 32 30 28 28 27 26 25 24 24 22 21 21 22 22 21 20 19 19 19 19 20 21 21 21 22 23 23 22 22 23 22 21 19 18 16 15 14 16 18 19 20 22 23 24 26 27 27 30 29 25 23 19 16 20 23 22 21 21 21 23 24 25 26 29 32 34 37 37 37 35 34
27 28 29 30 30 30 31 31 31 31 32 32 31 30 29 27 26 27 26 24 24 23 22 22 22 22 22 21 20 19 20 20 19 20 21 21 21 21 22 22 21 18 17 17 16 16 15 16 16 15 14 16 17 17 18 20 21 22 23 24 25 27 26 24 22 20 17 17 17 17 17 18 18 19 20 21 23 26 29 32 35 37 37 35 33
24 26 27 27 28 28 29 29 30 30 30 29 28 27 26 25 25 25 24 23 23 22 22 22 21 21 21 20 19 19 20 19 19 21 23 21 19 19 18 17 17 15 13 13 13 13 14 15 15 13 14 15 16 15 15 16 19 21 21 21 22 22 22 21 21 20 19 18 17 17 17 17 16 17 19 20 21 24 27 30 32 34 35 34 33
23 24 25 26 27 27 28 28 29 28 28 27 26 26 25 25 24 23 23 23 22 21 21 20 19 19 19 19 20 20 20 20 20 21 21 20 18 17 16 16 15 15 14 14 14 13 12 12 12 12 13 14 13 12 12 13 16 17 18 18 19 19 20 20 20 19 18 18 19 20 20 19 18 18 19 20 21 23 25 27 30 33 34 33 32
22 23 24 24 26 27 27 27 27 27 26 26 26 25 24 23 22 22 22 21 21 20 20 19 19 19 19 20 19 19 20 19 19 19 19 19 19 19 19 18 17 16 16 16 15 13 11 11 11 11 11 11 11 10 10 11 12 14 15 15 16 17 18 18 18 17 16 16 17 19 19 19 20 20 21 20 19 21 23 24 27 32 33 32 32
23 23 23 24 25 26 26 26 26 26 25 25 24 23 23 22 22 21 21 21 21 21 20 20 20 20 21 21 20 20 21 20 20 21 21 22 21 21 21 21 20 19 18 16 15 13 12 11 11 11 11 10 10 9 9 9 10 11 11 12 13 14 15 15 15 14 14 14 17 18 17 18 19 18 18 17 16 20 24 25 27 29 29 29 30
24 24 24 25 26 25 25 25 25 25 24 23 23 23 22 22 22 22 22 22 21 21 21 21 22 22 22 22 22 22 22 22 22 22 22 22 21 21 21 20 18 16 14 12 12 11 11 10 10 10 9 9 8 8 7 7 8 8 9 9 10 11 12 13 13 13 13 14 16 17 15 16 18 17 17 18 19 21 22 23 26 28 24 23 26
25 25 26 27 26 25 24 25 24 24 24 24 24 24 23 23 23 24 23 23 23 22 22 22 22 22 22 22 22 22 21 21 21 21 21 20 20 18 17 16 14 13 13 12 11 10 9 9 9 9 9 9 8 7 7 7 7 7 7 8 9 10 11 11 12 13 13 14 15 14 13 15 17 17 19 21 22 22 20 19 23 24 20 19 22
25 26 28 27 26 25 24 24 24 25 26 25 25 24 24 24 24 24 23 23 23 23 23 24 24 24 24 23 23 22 20 20 20 19 19 18 17 15 14 14 14 14 14 13 12 11 9 9 9 9 10 9 9 9 7 6 5 5 5 6 8 10 11 11 12 13 13 14 14 14 14 16 17 18 19 21 21 21 20 18 18 18 16 15 16
25 27 27 27 27 26 25 25 26 26 26 26 26 25 24 24 24 24 24 23 22 21 21 22 22 21 21 20 20 19 19 19 19 18 18 17 16 16 15 14 13 12 11 11 10 9 7 7 7 7 8 8 8 7 6 4 2 2 3 5 6 8 10 10 12 13 13 14 15 15 16 17 18 19 19 19 19 19 18 18 18 19 18 17 16
26 27 27 27 28 28 27 27 27 27 27 27 26 25 25 25 25 24 23 21 19 18 17 16 15 15 14 13 13 14 16 16 16 16 17 17 17 17 16 15 13 12 12 12 9 6 4 4 3 3 4 5 4 4 3 3 3 3 3 4 5 6 7 8 9 11 13 15 16 18 18 17 17 18 16 14 14 15 16 17 19 21 21 21 23
27 27 27 27 28 28 27 28 28 28 28 27 26 26 26 26 25 24 21 19 19 18 16 15 14 14 14 13 13 13 13 14 14 14 14 14 14 14 14 13 13 13 13 12 9 6 6 5 4 3 3 3 4 3 3 4 3 3 3 3 3 4 5 5 6 8 10 13 15 17 17 15 15 14 13 12 12 13 14 16 18 20 22 23 25
27 27 27 27 28 28 28 29 29 29 28 27 27 27 27 26 24 23 21 20 20 19 17 17 16 16 16 15 15 15 15 14 14 14 13 13 12 12 13 12 12 12 11 10 8 7 7 6 5 4 3 3 4 4 4 3 3 2 2 2 3 4 5 5 6 6 8 10 12 14 14 15 15 15 14 14 15 15 15 16 18 20 21 22 22
26 28 28 29 30 30 30 31 31 30 29 27 28 28 27 26 24 22 21 20 20 19 18 18 18 17 17 16 16 17 16 15 14 13 13 13 12 10 10 10 10 10 9 8 7 6 5 5 4 4 4 3 3 3 3 2 2 1 2 2 3 5 6 6 6 6 7 8 10 12 13 14 15 16 16 16 16 16 16 17 18 19 18 17 18
28 29 31 33 33 33 33 33 32 31 30 29 30 30 28 26 24 23 22 22 21 20 20 19 18 18 17 17 17 16 16 16 15 14 13 12 11 10 10 9 9 9 8 7 6 6 5 5 5 5 4 3 3 2 2 1 1 2 2 3 4 6 7 7 7 7 7 7 8 9 10 11 12 13 14 15 15 15 15 16 17 16 14 12 11
30 31 34 37 37 36 35 35 34 33 32 33 33 31 29 27 25 24 23 23 22 22 20 19 18 18 18 18 17 16 16 15 15 14 14 13 12 12 12 10 9 9 8 7 6 5 5 5 5 4 4 4 3 2 2 1 1 1 2 3 4 6 7 7 8 8 8 8 8 8 8 8 9 10 11 12 13 13 13 14 14 13 11 11 11
34 36 39 39 37 36 35 34 34 34 34 34 33 30 28 27 26 25 24 23 23 22 21 20 19 19 19 18 17 17 17 17 17 17 16 15 15 14 13 11 10 9 8 7 6 6 5 5 5 5 5 4 3 3 2 2 1 0 2 3 4 5 6 7 8 8 8 8 8 8 7 8 8 9 10 10 11 11 12 12 13 14 14 14 14
39 40 40 38 35 35 34 34 35 35 35 33 30 29 28 27 26 26 25 24 23 22 21 21 21 20 20 20 19 19 19 19 19 18 17 16 15 14 13 12 11 10 8 7 7 7 6 6 6 6 5 5 5 4 3 2 1 1 1 2 4 4 5 7 8 8 8 8 8 8 8 8 9 9 10 10 10 11 12 12 14 15 16 17 16
41 40 38 36 34 34 34 34 34 33 32 30 28 27 27 27 28 28 27 25 24 23 23 22 22 22 22 21 21 20 20 20 19 19 18 16 15 14 12 12 12 10 9 8 8 8 8 7 7 6 5 5 5 4 4 3 1 1 1 2 2 3 4 5 6 7 8 9 9 9 9 10 9 10 10 10 9 10 11 13 14 15 16 18 18
38 35 34 34 34 33 33 33 32 31 30 28 27 27 27 27 28 28 28 27 26 25 24 24 23 23 23 23 22 22 22 21 20 19 18 16 15 14 13 13 12 11 10 10 10 10 9 8 7 6 6 5 5 4 3 2 2 1 1 1 1 2 3 4 6 7 8 9 10 11 11 11 11 11 11 11 11 11 12 12 13 14 16 17 18
33 31 30 30 31 32 33 32 31 31 30 29 28 27 27 27 28 28 29 28 27 26 26 25 25 24 24 24 23 23 23 22 20 19 17 16 16 15 15 14 13 12 12 12 12 11 10 9 8 7 6 5 5 4 3 3 2 2 2 1 0 1 3 4 6 7 8 9 10 12 12 13 13 14 14 14 14 14 14 15 14 14 14 15 15
28 29 29 30 30 32 32 32 32 32 31 30 29 28 28 28 29 29 30 29 29 28 28 27 27 25 25 25 24 24 23 21 20 19 18 17 17 16 16 15 14 13 13 13 12 11 10 9 8 7 7 6 5 4 3 3 2 1 1 1 1 2 3 4 5 6 8 9 11 12 13 13 14 15 15 15 15 15 15 15 15 15 15 15 15
26 28 30 31 32 32 31 31 32 32 31 31 30 30 29 29 29 30 30 30 30 29 28 29 28 27 26 26 26 25 24 22 21 20 19 18 18 17 16 15 14 14 14 13 12 12 10 9 8 7 6 5 4 4 3 2 2 1 0 1 1 2 2 4 4 6 7 9 10 12 13 13 13 14 14 15 15 16 16 15 15 15 15 16 16
26 28 30 31 32 31 30 29 30 30 30 31 31 31 31 31 31 31 31 31 30 29 28 28 28 27 26 26 26 26 25 23 22 21 20 20 19 17 16 16 16 15 14 13 13 12 10 9 8 7 6 5 5 4 4 3 2 2 1 0 0 1 2 3 4 5 6 8 9 11 12 12 13 13 13 14 15 15 15 15 16 15 15 16 17
25 27 28 28 27 27 28 28 28 28 29 29 29 29 30 31 31 30 31 31 29 28 28 28 27 27 26 26 27 27 27 26 24 23 23 22 20 19 18 18 17 16 15 14 13 12 11 9 8 7 6 6 5 5 5 4 3 3 2 2 2 2 2 3 4 5 5 7 8 9 10 11 12 12 13 14 14 14 14 15 16 16 16 16 17
24 24 23 23 23 24 25 25 25 25 27 28 29 28 29 31 31 32 34 35 33 32 32 31 31 31 30 28 28 28 28 29 29 28 26 24 22 21 21 20 18 17 16 16 14 12 11 10 9 8 7 7 7 6 5 5 4 3 3 3 3 3 3 3 4 5 6 6 7 8 9 10 11 12 12 13 14 14 13 14 14 15 15 15 15
22 22 21 22 23 23 24 24 24 24 25 27 29 30 31 32 33 33 33 34 34 32 32 32 33 32 30 30 31 29 29 32 32 29 25 23 23 23 22 20 19 17 16 15 15 14 12 11 10 9 9 9 8 7 6 5 5 4 3 3 4 3 4 4 4 5 5 6 7 8 9 10 11 12 12 13 14 14 14 14 14 14 14 14 14
20 21 22 22 23 23 23 24 24 24 24 25 26 26 28 30 32 32 31 32 32 30 29 29 30 29 28 29 30 30 30 30 28 25 23 22 22 21 21 20 19 18 17 16 14 14 14 13 11 10 10 9 8 7 6 5 4 4 4 4 4 4 4 5 5 5 5 6 8 9 10 11 12 12 12 13 14 15 14 15 15 14 14 14 14
20 21 22 23 24 24 23 23 23 23 24 24 24 23 23 24 27 29 30 31 31 30 29 28 27 28 28 28 27 26 25 24 23 23 23 23 22 21 20 20 19 18 17 16 15 15 15 14 13 11 9 8 7 6 5 4 4 4 4 4 5 5 5 5 5 6 6 7 8 8 9 10 11 12 13 13 14 15 14 14 14 14 15 15 15
22 22 22 23 23 23 23 23 23 23 23 23 24 24 22 20 20 22 24 27 28 29 28 27 25 25 27 27 26 25 23 22 22 24 24 23 23 22 21 20 19 17 16 16 16 16 15 14 13 11 8 7 6 5 4 4 4 4 4 4 5 6 6 6 6 6 7 7 7 8 8 9 10 11 12 13 14 15 15 15 15 15 15 15 16
23 23 22 21 22 22 23 23 23 24 24 24 24 24 23 21 20 18 17 19 22 25 26 26 24 23 23 24 25 25 23 23 24 24 24 23 22 21 20 18 17 16 16 16 16 16 14 13 12 9 7 7 6 4 4 4 3 4 5 6 6 7 7 6 7 7 7 7 8 8 9 10 11 12 13 13 14 15 15 15 15 15 15 16 17
22 22 21 21 22 23 23 24 24 24 24 24 24 25 24 22 21 20 18 16 15 17 18 20 21 21 21 21 21 22 23 24 24 23 22 21 20 20 19 18 16 15 14 14 15 15 14 13 11 9 8 7 5 3 3 3 3 4 5 7 7 7 7 7 7 8 7 7 8 8 9 10 10 11 12 13 13 14 14 14 15 15 16 16 17
21 20 20 20 21 22 23 23 24 23 24 24 24 24 23 21 21 22 20 17 14 13 13 14 16 19 20 21 21 21 23 23 23 22 21 20 21 21 21 20 18 16 14 13 13 14 14 13 12 10 8 7 5 3 2 2 3 4 5 6 6 6 6 6 7 7 7 7 7 8 8 9 10 10 12 12 13 13 14 15 15 16 16 17 16
18 19 18 19 20 20 20 21 21 22 22 23 23 22 22 21 22 22 20 18 16 16 15 15 15 16 18 20 20 20 20 19 19 18 18 20 21 23 23 21 20 18 17 16 15 15 14 12 11 10 8 6 5 3 2 1 2 2 2 3 4 5 5 5 6 6 6 7 7 8 9 9 10 10 11 12 13 14 15 15 15 15 16 16 16
16 17 17 18 19 18 18 18 19 19 19 20 20 20 20 20 21 21 20 19 19 19 18 19 19 18 18 18 19 19 19 19 19 18 19 20 21 22 21 21 20 19 18 17 16 15 14 12 10 9 7 6 4 3 1 1 2 3 5 6 7 8 8 8 8 8 8 8 8 7 8 8 9 9 10 12 13 14 14 14 14 15 15 16 16
16 17 17 17 17 18 17 17 17 18 18 19 19 20 20 20 20 20 20 20 21 21 21 21 21 21 21 21 22 22 22 22 21 20 20 21 20 19 19 19 20 19 18 17 15 14 13 12 9 7 6 4 3 1 1 3 4 6 7 8 8 9 8 8 7 6 6 5 5 5 6 7 7 8 9 11 12 13 13 13 14 15 16 16 15
16 16 17 17 17 18 18 18 18 18 18 19 20 21 21 21 20 21 21 21 22 22 22 21 21 21 22 23 24 24 23 22 22 21 20 20 19 19 19 20 19 18 17 16 14 12 11 10 8 6 4 2 0 1 3 4 6 7 8 8 8 8 7 6 6 6 6 7 7 7 8 9 9 9 10 10 11 12 13 14 15 16 16 16 16
15 16 16 16 17 18 18 19 19 19 20 20 21 21 22 22 22 23 23 23 23 22 22 22 21 22 24 25 25 25 24 24 23 23 23 22 21 20 19 18 17 16 15 14 12 10 9 8 6 4 2 1 2 3 4 5 6 6 7 7 7 7 7 7 8 9 9 9 10 9 9 8 8 9 9 10 10 11 12 13 14 14 15 16 17
14 15 15 16 17 17 18 18 19 20 20 21 21 22 22 23 24 24 24 24 24 23 22 21 21 22 23 24 24 23 23 24 24 23 23 23 21 20 18 16 15 14 13 11 10 8 7 5 4 2 1 1 2 3 4 5 5 6 6 7 7 7 7 8 8 9 9 9 10 9 9 8 9 9 10 10 10 11 12 13 13 13 14 16 17
14 14 15 15 16 17 18 18 18 19 19 20 20 21 22 23 24 25 25 25 25 25 23 21 20 20 21 21 21 20 21 23 24 23 22 21 20 18 16 14 12 11 9 8 7 6 4 3 2 1 1 2 2 3 3 4 5 5 6 6 6 7 7 7 8 8 9 9 10 10 10 10 10 10 9 9 9 10 11 11 12 13 14 15 16
14 15 15 16 17 17 18 18 18 18 19 20 20 21 22 23 24 24 25 25 25 25 24 23 21 19 19 19 19 20 21 22 22 21 20 19 17 15 14 12 10 8 8 7 5 4 3 2 1 1 1 2 2 3 3 4 4 5 5 6 6 7 7 8 8 9 10 10 10 10 10 9 9 8 8 8 8 9 9 10 11 12 13 14 14
15 15 15 15 16 16 17 18 18 19 19 20 20 21 22 23 23 24 24 24 24 24 24 23 22 21 21 20 20 21 22 21 20 19 17 16 14 12 11 10 9 7 6 5 4 3 2 1 1 1 1 1 2 2 3 4 4 5 6 6 7 7 8 8 9 10 10 10 10 10 9 9 8 8 8 8 7 8 9 10 11 12 13 13 14
15 16 16 16 16 16 16 17 18 19 20 21 21 21 22 23 24 24 24 24 25 25 24 23 23 23 22 21 21 21 20 19 17 16 15 13 12 11 10 9 7 6 4 3 2 2 1 1 1 0 1 1 2 2 3 4 5 6 7 7 8 8 9 9 9 9 9 9 9 9 9 9 9 9 8 8 7 8 9 11 12 13 13 13 14
16 17 17 17 18 18 18 18 19 20 21 21 21 21 22 22 23 24 24 25 26 26 25 24 23 23 22 21 20 19 18 17 16 14 13 12 11 10 9 7 5 4 2 2 1 1 1 1 1 1 1 2 2 3 4 6 6 7 8 8 8 9 9 9 9 9 8 8 8 7 8 9 9 9 9 8 8 9 10 12 12 13 14 14 15
17 17 18 19 19 20 20 20 21 21 20 21 22 23 24 24 24 25 26 26 26 26 25 24 23 22 21 20 19 18 17 15 14 14 13 11 10 9 7 5 4 3 2 2 1 1 1 2 2 2 2 3 4 5 6 7 7 8 8 9 9 9 9 9 9 9 8 7 7 8 8 9 10 10 9 9 9 10 11 12 13 13 14 14 15
18 18 19 19 20 21 22 23 23 23 23 23 24 25 26 26 26 27 27 27 26 26 25 23 22 21 19 18 17 16 15 14 13 13 11 10 8 7 5 4 4 3 3 3 3 3 2 3 3 3 4 5 5 6 7 7 8 8 9 9 9 9 9 9 9 9 8 7 7 8 8 9 10 10 9 9 10 11 12 13 13 13 14 14 14
19 20 20 20 20 22 23 24 25 25 26 27 27 26 26 26 27 27 26 26 25 24 23 21 20 19 17 17 16 15 14 13 12 11 10 8 7 6 5 5 5 4 4 4 4 4 4 4 5 5 6 6 7 7 8 8 9 9 9 9 9 9 9 9 9 8 8 7 8 8 9 10 11 10 10 10 10 11 12 13 14 14 14 15 15
20 21 22 22 23 23 24 25 26 28 29 29 29 28 27 26 26 25 24 23 22 21 19 18 17 16 16 15 15 14 13 12 11 10 8 7 7 6 6 6 5 5 5 5 5 5 6 6 6 7 8 8 8 9 9 9 9 10 10 10 9 9 9 8 8 7 7 8 9 10 11 11 11 10 10 10 11 12 13 14 15 15 15 15 16
22 23 24 24 25 26 26 27 29 29 29 29 29 28 27 26 25 23 22 21 20 19 18 17 16 15 14 13 13 12 11 10 9 8 7 7 6 6 6 6 6 6 6 6 6 7 7 8 8 8 9 9 9 9 10 10 10 10 11 11 10 9 9 8 7 7 8 10 10 10 10 10 9 10 10 11 11 12 13 14 14 15 15 16 16
Wind_Direction
232 233 234 234 234 234 235 236 238 240 242 242 244 246 247 248 249 252 254 255 255 255 255 256 257 257 258 258 259 258 258 258 258 257 257 256 254 255 259 262 261 261 263 264 264 262 261 263 268 276 284 283 283 285 283 280 276 273 271 265 261 261 255 245 243 259 265 266 270 275 280 281 276 270 264 259 255 250 245 243 242 240 240 242 243
233 234 234 234 234 236 237 238 239 240 240 241 242 243 245 246 249 251 252 253 253 253 253 254 255 255 256 257 255 253 252 252 252 253 254 256 258 258 259 261 262 261 261 263 263 261 261 263 270 279 285 285 285 285 284 282 279 277 276 272 266 266 260 249 247 251 257 262 266 272 278 278 275 271 264 257 253 250 246 242 239 239 240 242 243
234 235 234 235 236 236 237 237 237 237 237 238 240 241 244 246 248 249 250 250 250 250 250 250 250 251 251 250 248 247 248 247 247 250 251 250 249 249 252 258 264 264 263 262 260 259 259 264 272 279 285 287 287 289 288 285 281 279 278 275 269 268 266 258 255 255 257 263 268 275 279 277 273 268 262 255 252 251 248 243 240 240 241 242 243
234 234 233 235 235 234 234 233 233 234 235 236 239 241 244 245 245 245 246 246 246 245 245 244 244 243 243 242 242 242 245 243 241 245 249 250 248 248 252 257 260 261 262 262 260 261 265 272 276 280 283 284 285 288 289 287 284 281 279 278 274 270 270 267 263 262 265 272 279 284 285 284 279 270 264 261 257 254 251 246 242 241 241 242 244
233 234 233 233 233 231 231 231 231 232 234 236 238 239 240 240 240 240 240 240 240 239 238 237 237 237 238 238 239 240 242 243 244 247 248 249 252 252 251 251 252 253 258 261 263 267 272 276 278 280 280 280 282 286 288 290 289 285 283 285 282 278 278 276 273 271 270 274 282 286 288 291 288 280 273 266 259 254 250 245 243 242 242 242 244
232 232 231 231 230 230 229 229 230 231 233 234 236 236 236 235 234 234 234 234 234 233 233 234 234 235 235 236 240 241 241 242 246 247 244 244 248 251 250 251 255 257 261 264 265 266 271 277 281 281 279 278 282 288 291 292 291 289 290 292 291 288 287 285 284 280 276 275 277 279 283 286 285 281 276 268 260 255 251 247 245 243 242 242 244
230 229 228 228 229 228 228 229 230 231 233 233 233 233 231 230 229 228 228 229 229 229 229 229 231 233 234 236 239 238 237 237 241 244 246 249 253 255 258 261 263 265 266 266 267 268 272 276 281 282 281 280 283 286 287 287 289 290 293 295 294 294 294 293 289 283 279 279 280 280 282 283 280 277 275 271 264 257 252 247 246 245 243 242 244
228 227 225 226 227 229 229 229 230 230 231 230 229 227 224 223 223 224 225 226 227 229 229 230 232 234 236 238 239 239 241 242 244 247 250 253 255 258 261 262 262 262 263 264 266 267 268 268 269 272 276 282 284 283 283 283 287 291 293 294 294 296 296 294 287 281 279 280 280 281 282 281 278 274 271 266 256 254 253 246 245 248 247 245 248
227 226 225 225 227 228 228 227 226 225 225 223 221 220 219 220 222 223 224 225 227 229 231 233 235 237 238 240 241 243 245 246 247 249 251 253 254 254 254 254 254 254 254 258 262 262 260 260 261 264 270 277 278 279 282 283 283 285 288 289 291 292 292 288 282 279 278 276 276 280 279 276 275 270 263 258 253 257 260 250 246 249 252 254 256
225 223 224 225 226 226 225 224 222 219 218 218 217 218 219 221 223 225 226 227 228 229 231 233 235 237 239 240 242 243 245 245 246 247 248 248 247 245 245 250 255 257 256 256 256 254 251 254 258 264 270 275 279 283 285 283 283 285 286 289 289 286 282 279 277 276 274 271 273 277 274 271 274 271 267 266 265 263 261 254 249 251 255 261 265
221 221 223 224 224 223 221 219 217 216 216 217 219 220 222 224 226 228 230 232 233 234 234 235 235 236 238 238 239 240 241 243 244 244 243 241 241 242 247 254 258 257 256 254 253 255 259 263 267 269 270 272 274 276 275 277 287 296 298 297 292 285 280 276 276 276 273 270 273 274 270 270 278 280 277 275 271 263 257 252 250 252 254 258 266
219 221 222 222 221 220 218 216 216 216 217 219 221 222 224 226 227 230 233 235 238 238 236 235 234 235 235 235 235 235 236 239 240 241 242 241 243 247 248 251 254 254 255 256 256 260 266 271 271 265 262 261 260 259 258 259 267 275 282 284 279 279 277 273 273 272 269 269 272 272 271 274 282 286 284 280 273 264 257 253 252 254 252 248 253
220 222 222 221 221 220 218 217 217 218 219 220 222 223 225 228 229 232 235 236 236 233 231 229 226 223 221 222 225 227 229 233 234 237 240 241 241 242 243 247 252 254 257 258 254 251 254 267 276 267 258 252 244 238 233 229 227 235 253 267 274 279 279 276 274 271 268 268 268 272 276 279 283 288 290 286 279 270 261 257 257 256 252 250 256
220 223 223 222 221 220 219 218 219 221 222 221 223 224 227 230 232 234 233 230 226 224 221 220 217 214 214 215 219 223 225 227 229 233 236 236 237 239 241 246 250 251 250 247 244 245 250 254 259 257 245 231 228 232 230 229 233 245 265 287 297 301 304 303 293 280 275 271 269 274 281 282 282 286 287 283 281 278 270 267 267 263 259 261 267
221 224 224 224 223 221 220 220 221 222 222 222 224 227 229 230 230 229 226 222 221 219 217 217 217 215 216 217 219 223 226 228 231 233 234 233 234 237 237 238 241 242 239 236 234 235 235 233 230 231 223 211 220 233 238 246 258 276 313 338 332 332 341 341 329 308 296 287 281 282 284 281 279 279 279 280 282 284 280 277 275 272 269 270 271
223 225 226 226 226 224 222 221 221 221 221 222 224 227 228 227 225 222 219 217 218 217 216 217 217 215 216 219 221 223 226 229 231 232 230 226 225 227 230 230 230 229 226 224 222 217 213 209 205 206 209 209 220 234 242 257 284 312 339 345 344 351 355 352 345 334 320 306 296 292 289 285 283 281 281 283 283 284 283 278 274 271 269 270 272
226 227 228 229 228 226 224 222 221 220 219 221 224 225 224 222 220 217 214 213 214 213 213 214 215 216 218 221 220 220 222 224 224 223 222 220 222 227 229 223 213 208 205 203 202 201 198 200 202 202 206 212 222 240 252 276 301 312 334 341 349 1 1 355 353 352 343 331 318 309 302 296 292 288 287 285 283 283 279 272 273 273 267 267 273
229 229 232 233 231 228 225 222 220 219 219 222 223 222 221 219 218 215 213 213 214 213 213 214 215 216 218 220 220 219 220 220 220 223 223 222 224 223 217 209 200 196 196 197 201 207 209 211 212 208 208 209 212 230 248 275 301 327 350 351 358 9 6 358 357 356 353 347 339 330 322 311 304 299 294 289 286 285 279 271 274 277 270 263 268
233 234 236 235 232 229 225 222 221 220 221 223 222 220 219 217 215 213 212 214 215 214 214 215 214 215 216 219 222 222 223 223 223 224 222 218 217 214 208 206 207 207 210 215 221 227 224 218 211 203 200 201 207 219 221 210 204 9 11 5 7 10 2 354 352 350 347 344 338 331 325 319 314 308 304 298 291 288 285 276 271 271 271 269 271
239 239 238 236 233 230 227 224 223 222 222 222 220 219 218 215 212 210 209 211 214 214 213 213 215 217 218 218 219 219 220 220 218 216 213 210 211 210 209 211 213 212 216 223 226 223 215 206 201 197 195 197 203 208 204 192 183 135 44 25 15 4 352 347 345 342 338 336 333 330 326 324 322 318 317 315 305 294 288 282 276 273 272 270 270
242 239 238 235 233 232 229 226 225 224 223 222 219 218 217 214 211 208 205 206 209 210 212 213 214 217 216 213 214 216 215 214 212 210 209 209 212 212 212 213 215 216 217 219 217 210 201 197 194 192 192 197 199 197 191 187 178 121 77 55 29 355 340 338 336 335 334 332 333 333 332 333 334 333 332 331 325 312 300 294 290 286 280 277 276
243 239 237 234 232 232 230 227 226 225 224 222 219 217 215 213 211 208 204 203 204 206 209 211 212 212 211 209 211 213 212 211 211 210 209 210 214 217 218 219 220 217 215 217 214 205 196 193 191 188 188 190 189 183 179 177 162 133 125 105 50 342 328 330 333 333 333 332 333 333 333 336 338 339 340 339 336 331 324 317 310 302 295 290 286
244 240 238 235 233 231 230 228 225 223 222 221 218 215 212 210 209 208 204 201 200 202 205 206 206 206 206 206 207 209 209 208 209 211 211 213 217 220 222 222 220 215 213 215 211 202 195 191 188 184 182 179 176 169 162 162 161 154 160 177 229 315 319 327 332 332 329 328 328 329 333 337 338 339 340 340 338 337 336 334 328 322 314 306 299
244 238 236 235 233 232 230 227 224 222 221 218 215 212 210 207 206 206 205 200 197 198 201 201 201 201 201 203 204 206 207 207 208 210 213 215 217 218 217 216 213 211 211 210 204 197 193 188 183 179 177 171 164 157 151 147 148 152 173 227 271 299 313 321 323 321 320 322 324 326 332 337 338 337 337 337 337 336 336 334 331 328 324 318 313
240 236 234 232 231 230 228 225 222 221 219 216 212 210 207 204 202 203 203 200 198 197 198 198 198 198 199 201 201 202 203 204 207 209 212 214 214 212 211 211 210 210 209 203 196 192 187 181 175 171 167 159 146 133 124 115 109 116 184 278 299 305 310 316 318 315 316 321 323 326 332 336 336 335 335 333 333 334 333 330 328 327 326 322 319
238 236 233 231 229 226 222 220 219 218 217 216 214 212 207 203 202 201 200 201 200 199 198 197 198 199 199 199 200 200 201 203 206 207 207 208 208 207 209 210 209 207 201 193 188 184 178 173 169 162 152 140 128 119 114 111 115 122 135 163 281 359 351 342 340 331 323 324 325 327 332 335 333 333 333 331 330 332 332 329 326 328 330 327 321
240 237 233 230 227 223 219 217 216 214 214 213 213 213 211 207 204 201 200 200 200 200 199 199 199 199 198 198 198 199 200 201 203 204 203 203 205 206 208 207 203 196 189 185 182 178 172 165 161 154 144 131 123 121 120 119 122 120 111 99 80 60 39 17 7 358 342 331 329 328 330 331 331 332 333 331 331 334 334 330 327 330 333 329 322
241 238 235 231 227 224 221 218 215 212 212 211 211 211 211 209 208 207 206 203 201 200 200 201 201 201 199 195 193 194 197 201 203 202 201 200 202 203 203 201 198 191 186 182 176 169 166 161 153 147 139 130 126 126 125 124 121 116 106 91 78 68 53 39 31 21 5 348 337 333 332 332 333 335 336 334 334 337 338 335 330 330 332 328 320
239 236 234 231 227 225 223 220 217 214 212 213 214 215 215 213 213 215 215 212 209 207 205 205 206 206 202 198 193 190 195 201 204 204 203 202 203 203 199 196 192 187 183 179 172 164 160 156 151 144 137 134 133 130 128 128 122 112 104 92 85 78 66 54 46 33 15 359 348 342 339 338 339 341 340 336 336 339 340 336 332 331 328 322 313
234 231 229 227 225 223 220 218 217 215 214 213 215 217 220 220 218 219 220 219 218 218 217 216 214 210 207 206 202 199 201 203 202 202 204 203 203 203 198 193 189 184 178 175 171 164 158 153 148 144 140 138 136 132 131 131 122 107 96 86 77 72 66 56 43 28 15 2 353 349 346 342 340 339 336 331 331 336 336 332 329 327 322 316 308
231 228 226 224 222 220 217 215 214 214 214 214 212 211 214 218 220 222 224 223 222 222 223 224 222 218 215 213 211 209 210 208 202 199 199 197 195 193 191 189 187 183 178 174 169 163 158 152 144 141 141 140 134 128 124 115 102 87 78 74 67 56 49 42 26 12 3 356 348 345 342 339 334 331 329 326 326 326 327 326 324 319 315 311 303
230 229 227 225 223 219 215 213 212 210 210 211 209 207 205 205 209 216 221 224 224 224 224 225 225 223 221 219 215 212 210 206 200 196 192 189 188 187 186 186 185 181 179 177 170 161 156 151 144 140 140 134 122 112 102 91 78 60 45 40 37 30 22 16 5 356 351 345 339 336 335 333 331 328 326 323 319 316 317 318 317 313 309 306 301
234 233 230 225 221 217 214 211 210 208 206 205 204 203 202 200 198 197 201 211 218 220 222 222 220 216 215 217 217 213 206 198 193 189 186 185 186 185 183 183 183 180 180 179 169 157 150 146 140 135 129 120 108 97 87 72 49 32 19 9 6 7 5 1 353 346 343 338 332 330 329 326 323 322 321 319 317 314 312 312 313 312 308 303 298
240 239 235 228 221 215 213 211 209 208 206 205 203 203 203 202 197 186 177 179 189 198 206 211 212 211 209 209 208 205 197 190 188 188 187 186 184 181 176 172 173 180 185 181 167 153 144 137 133 131 127 120 113 104 92 67 26 12 7 1 360 2 360 354 347 340 337 332 327 326 327 326 325 325 324 324 323 318 313 311 311 310 305 298 294
241 241 240 235 227 220 216 213 210 209 207 205 204 203 201 199 193 184 178 174 169 166 169 179 191 200 200 194 191 191 190 189 188 188 187 184 180 178 173 167 166 170 172 166 157 149 143 138 136 135 134 132 128 120 100 71 32 20 15 9 6 3 356 350 345 340 336 332 331 333 333 331 332 332 329 326 322 317 311 308 307 304 300 297 294
241 239 238 234 230 225 221 217 213 211 209 206 204 202 198 194 189 184 181 177 169 160 155 156 165 177 183 183 182 182 183 182 180 178 177 177 178 179 175 168 163 160 154 150 147 144 142 141 141 140 140 140 138 132 121 92 44 18 357 340 330 324 321 321 321 320 319 319 323 325 323 322 323 325 323 318 313 310 307 305 304 304 303 300 296
243 239 236 232 228 225 222 219 216 214 211 207 203 199 195 191 186 181 178 173 167 160 155 151 152 154 159 164 166 163 162 162 161 160 163 169 177 182 179 169 160 154 149 148 147 144 140 140 143 142 139 139 140 140 141 311 314 306 300 298 296 295 294 295 295 297 302 309 316 320 321 320 320 321 319 313 308 306 305 304 306 307 305 301 297
243 241 238 234 228 222 219 216 213 211 209 205 200 195 190 186 182 178 173 168 163 159 155 153 153 150 148 150 155 157 157 157 157 157 161 168 175 180 178 169 160 153 148 145 146 144 138 136 139 140 137 137 145 145 318 312 308 305 301 298 295 294 294 292 290 292 298 307 317 323 322 321 322 323 322 318 311 308 306 306 306 305 302 300 297
242 240 238 235 229 223 218 213 209 206 202 198 195 191 186 180 176 173 168 163 161 160 157 157 158 156 153 153 157 159 158 155 153 153 155 160 165 167 165 162 157 150 145 143 143 143 139 137 140 143 138 133 103 340 326 314 308 306 303 301 299 297 293 288 285 287 288 289 292 295 298 301 305 307 309 309 309 307 306 304 303 301 299 298 296
240 238 235 232 226 221 217 212 208 204 199 195 191 187 182 178 174 170 166 163 161 161 161 162 163 163 161 161 163 165 160 153 150 150 149 150 152 154 156 155 151 146 143 142 142 142 141 140 141 138 125 66 344 329 318 310 306 303 300 299 296 292 288 284 283 285 287 288 290 293 296 300 304 304 303 303 304 305 303 301 300 299 297 296 296
237 234 231 227 222 217 213 209 206 203 200 196 191 185 181 178 174 170 166 163 161 160 161 162 163 165 166 167 169 171 165 155 150 149 148 147 147 148 149 148 146 143 142 141 141 142 140 135 132 119 32 338 324 317 310 304 303 300 296 293 290 287 288 287 287 288 290 291 294 296 297 295 293 292 293 294 296 296 294 294 296 297 296 295 296
231 226 222 218 213 209 206 203 201 200 197 193 189 185 180 176 171 168 165 162 160 158 155 154 157 164 169 171 174 174 167 156 150 147 146 145 145 144 143 141 140 140 140 140 139 136 130 119 109 64 341 318 312 309 302 296 295 293 291 290 291 293 295 295 294 295 296 298 301 303 302 298 295 293 293 295 295 296 295 295 297 298 296 295 296
224 218 212 207 203 202 200 197 193 190 188 185 183 181 176 172 169 165 161 158 157 155 150 148 149 154 160 166 171 169 161 153 148 145 144 143 141 139 137 137 138 140 140 137 129 120 107 85 56 19 336 313 306 302 293 289 288 289 291 294 297 299 301 302 303 303 302 304 306 307 307 307 306 302 298 296 296 298 300 299 299 298 296 294 294
214 205 199 195 192 190 189 186 182 179 178 175 173 171 170 167 163 160 157 154 152 151 148 146 147 147 147 152 158 157 152 148 145 143 141 140 138 137 138 140 141 140 135 125 111 95 76 55 39 11 312 301 299 294 289 288 290 293 295 297 298 301 303 305 306 306 305 307 310 311 310 311 308 302 298 297 297 300 302 300 297 296 294 293 292
205 195 186 181 178 175 173 172 170 167 164 162 159 158 160 159 157 155 153 151 150 150 148 147 147 146 145 147 150 149 145 144 143 141 140 140 141 142 143 143 140 134 122 104 86 72 67 75 95 135 259 264 275 284 285 286 288 290 292 293 296 299 302 302 301 302 304 305 309 311 313 314 312 308 302 299 299 299 299 297 296 294 292 291 290
197 188 179 173 168 163 160 159 158 155 153 151 148 148 149 150 150 149 149 150 151 150 148 147 147 148 147 147 148 146 144 144 143 143 145 146 145 144 144 141 136 130 121 113 109 113 121 140 157 172 203 237 257 267 272 275 280 283 285 288 291 295 296 296 295 296 299 305 311 315 315 311 306 299 294 293 296 298 297 296 295 292 289 288 288
188 181 174 168 162 157 153 152 150 147 146 146 145 145 145 146 146 147 148 149 150 149 148 149 151 151 150 148 147 146 146 147 147 147 148 148 145 143 144 143 142 146 155 162 173 186 188 192 197 204 221 241 252 258 265 271 276 278 282 286 290 291 291 290 289 293 301 308 310 307 302 296 292 290 292 296 298 296 294 293 293 291 288 287 285
178 172 166 161 157 153 151 149 147 145 143 142 142 143 144 145 145 146 148 149 150 151 152 153 152 150 149 148 148 149 150 150 151 150 150 149 147 147 151 156 161 168 178 186 192 201 210 221 234 244 252 257 258 260 262 266 271 276 280 284 286 287 287 287 291 299 307 311 309 306 302 297 295 297 299 299 296 293 292 292 292 291 288 286 285
169 164 159 155 152 150 150 149 147 145 143 141 139 139 140 141 142 144 146 148 150 152 153 153 151 151 152 152 152 153 154 153 153 154 153 153 154 156 161 170 175 178 186 197 206 218 231 243 254 262 265 264 263 263 264 267 271 276 280 282 283 286 287 290 296 306 313 313 310 307 304 299 298 299 298 295 293 292 291 290 290 287 285 284 285
164 160 156 152 149 147 148 146 144 142 142 141 139 138 138 139 141 143 146 149 150 152 154 155 155 156 157 156 156 157 156 156 157 158 158 159 163 165 169 178 185 190 197 209 221 233 243 252 260 265 267 267 267 267 269 271 274 277 280 282 285 288 289 292 300 309 310 303 297 296 296 297 299 301 301 298 296 293 290 289 288 285 284 285 286
158 154 151 149 147 146 146 144 141 141 142 142 141 141 142 144 146 148 151 153 154 156 158 159 159 159 159 158 157 157 158 159 160 162 163 166 170 173 179 188 197 205 214 224 233 241 250 257 263 267 268 269 270 272 274 276 277 280 282 284 286 287 288 292 295 293 289 287 289 294 300 304 306 308 309 308 306 300 294 288 285 284 284 286 287